This is the latest recevied weather packets stored in our database for station/object DL0GY-13. If no packets are shown the sender has not sent any weather packets the latest 10 day(s).
| Time | Temp. | Humidity | Pressure | Rain* | Wind** | Luminosity | Snow |
|---|---|---|---|---|---|---|---|
| 1777467036 | 18.33° C | 31% | 1025.1 hPa | 0 mm | - | - | - |
| 1777466610 | 18.33° C | 31% | 1025.1 hPa | 0 mm | - | - | - |
| 1777466435 | 18.33° C | 31% | 1025.1 hPa | 0 mm | - | - | - |
| 1777465835 | 18.89° C | 29% | 1025.2 hPa | 0 mm | - | - | - |
| 1777465235 | 19.44° C | 27% | 1025.4 hPa | 0 mm | - | - | - |
| 1777464635 | 21.11° C | 26% | 1025.3 hPa | 0 mm | - | - | - |
| 1777464035 | 21.67° C | 25% | 1025.4 hPa | 0 mm | - | - | - |
| 1777463435 | 21.67° C | 26% | 1025.4 hPa | 0 mm | - | - | - |
| 1777462235 | 21.11° C | 26% | 1025.7 hPa | 0 mm | - | - | - |
| 1777461635 | 20.56° C | 27% | 1025.7 hPa | 0 mm | - | - | - |
| 1777461035 | 20.56° C | 27% | 1025.6 hPa | 0 mm | - | - | - |
| 1777460435 | 20° C | 28% | 1025.6 hPa | 0 mm | - | - | - |
| 1777459835 | 20.56° C | 27% | 1025.8 hPa | 0 mm | - | - | - |
| 1777459236 | 20.56° C | 28% | 1026 hPa | 0 mm | - | - | - |
| 1777458635 | 20° C | 29% | 1026.1 hPa | 0 mm | - | - | - |
| 1777458035 | 20° C | 28% | 1026 hPa | 0 mm | - | - | - |
| 1777457436 | 20° C | 28% | 1026.1 hPa | 0 mm | - | - | - |
| 1777456835 | 21.11° C | 29% | 1026.1 hPa | 0 mm | - | - | - |
| 1777456235 | 20° C | 30% | 1026.3 hPa | 0 mm | - | - | - |
| 1777455635 | 19.44° C | 29% | 1026.3 hPa | 0 mm | - | - | - |
| 1777455035 | 20° C | 30% | 1026 hPa | 0 mm | - | - | - |
| 1777454435 | 20° C | 31% | 1026 hPa | 0 mm | - | - | - |
| 1777453835 | 18.89° C | 31% | 1026.3 hPa | 0 mm | - | - | - |
| 1777453235 | 19.44° C | 30% | 1026.3 hPa | 0 mm | - | - | - |
| 1777452635 | 20° C | 30% | 1026.3 hPa | 0 mm | - | - | - |
* Rain latest hour (hover to see other rain measurements)
** Current wind speed in m/s (hover to see current wind gust speed)